www.pogodaiklimat.ru

Погода и климат >> Архив погоды >> Норвегия >> Ferder Fyr


ПОГОДА в Ferder Fyr

  • Прогноз погоды в Ferder Fyr
  • Монитор погоды в Ferder Fyr
  • Климат города

АРХИВ ПОГОДЫ в Ferder Fyr

Время (UTC), дата Ветер
(напр.,м/с)
 
Видим.   Явления Облачность Т
(С)
Тd
(С)
f
(%)
Тe
(С)
Тes
(С)
Комфортность P
(гПа)
Po
(гПа)
Тmin
(С)
Tmax
(С)
R
(мм)
R24
(мм)
S
(см)
07 11.08 З 3
{5}
н/о н/о +16.0 +9.4 65 +16 +16 1013.2 1012.3
08 11.08 ЮЗ 4
{5}
н/о н/о +16.8 +9.3 61 +16 +16 1013.1 1012.2
09 11.08 ЮЗ 4
{6}
н/о н/о +16.6 +8.3 58 +16 +16 1013.1 1012.2
10 11.08 Ю 5
{6}
н/о н/о +16.4 +8.6 60 +16 +16 1013.0 1012.1
11 11.08 Ю 8
{9}
н/о н/о +15.8 +9.7 67 +14 +14 1012.7 1011.8
12 11.08 ЮВ 5
{9}
н/о н/о +14.7 +9.9 73 +13 +13 1012.5 1011.6
13 11.08 В 2
{4}
н/о н/о +15.1 +9.7 70 +15 +15 1012.0 1011.1
14 11.08 В 2
{3}
н/о н/о +15.3 +10.5 73 +15 +15 1011.6 1010.7
15 11.08 В 4
{5}
н/о н/о +15.4 +10.6 73 +14 +14 1010.8 1009.9
16 11.08 В 4
{5}
н/о н/о +15.8 +11.2 74 +15 +15 1010.5 1009.6
17 11.08 СВ 3
{5}
н/о н/о +15.7 +10.9 73 +15 +15 1010.3 1009.4
18 11.08 СВ 2
{5}
н/о н/о +15.7 +10.9 73 +16 +16 1010.1 1009.2 +14.7 +17.1
19 11.08 С 2
{3}
н/о н/о +15.7 +11.1 74 +16 +16 1010.0 1009.1
20 11.08 С 2
{3}
н/о н/о +15.6 +11.0 74 +16 +16 1009.8 1008.9
21 11.08 СЗ 3
{4}
н/о н/о +15.6 +10.4 71 +15 +15 1009.6 1008.7
22 11.08 СЗ 2
{4}
н/о н/о +15.6 +10.4 71 +16 +16 1009.1 1008.2
23 11.08 З 4
{4}
н/о н/о +15.8 +10.1 69 +15 +15 1008.9 1008.0
00 12.08 СЗ 3
{5}
н/о н/о +15.7 +10.3 70 +15 +15 1008.8 1007.9
01 12.08 СЗ 4
{5}
н/о н/о +15.6 +10.8 73 +15 +15 1008.4 1007.5
02 12.08 СЗ 6
{8}
н/о н/о +15.2 +9.1 67 +14 +14 1008.3 1007.4
03 12.08 С 5
{9}
н/о н/о +15.0 +11.0 77 +14 +14 1008.2 1007.3
04 12.08 С 6 н/о н/о +14.5 +10.7 78 +13 +13 1008.4 1007.5
05 12.08 С 6
{8}
н/о н/о +14.3 +8.1 66 +12 +12 1008.6 1007.7
06 12.08 С 5
{9}
н/о н/о +15.0 +8.9 67 +14 +14 1008.9 1008.0 +14.3 +15.9
07 12.08 С 6
{8}
н/о н/о +15.2 +7.5 60 +14 +14 1009.1 1008.2
08 12.08 С 5
{9}
н/о н/о +15.9 +7.7 58 +15 +15 1009.4 1008.5
09 12.08 С 8
{10}
н/о н/о +16.3 +8.8 61 +15 +15 1009.6 1008.7
10 12.08 С 9
{13}
н/о н/о +15.4 +9.1 66 +13 +13 1010.2 1009.3
11 12.08 СВ 8
{11}
н/о н/о +15.5 +8.5 63 +14 +14 1010.4 1009.5
12 12.08 С 8
{13}
н/о н/о +15.6 +8.4 62 +14 +14 1010.5 1009.6
13 12.08 С 7
{10}
н/о н/о +16.1 +7.6 57 +15 +15 1010.7 1009.8
14 12.08 СВ 6
{8}
н/о н/о +16.3 +7.0 54 +15 +15 1010.6 1009.7
15 12.08 СВ 4
{7}
н/о н/о +16.3 +6.5 52 +16 +16 1010.6 1009.7
16 12.08 СВ 1
{5}
н/о н/о +16.5 +6.9 53 +17 +17 1010.5 1009.6
17 12.08 СВ 1
{3}
н/о н/о +16.5 +6.4 51 +17 +17 1010.4 1009.5
18 12.08 З 3
{10}
н/о н/о +16.6 +7.3 54 +16 +16 1010.5 1009.6 +14.7 +16.8
19 12.08 ЮЗ 3
{5}
н/о н/о +16.4 +7.4 55 +16 +16 1010.5 1009.6
20 12.08 З 3
{4}
н/о н/о +16.2 +7.4 56 +16 +16 1010.6 1009.7
21 12.08 З 3
{4}
н/о н/о +16.2 +7.2 55 +16 +16 1010.5 1009.6
22 12.08 З 2
{4}
н/о н/о +16.2 +7.2 55 +16 +16 1010.5 1009.6
23 12.08 СЗ 3
{4}
н/о н/о +15.8 +9.0 64 +15 +15 1010.6 1009.7
00 13.08 СЗ 3
{5}
н/о н/о +15.7 +9.4 66 +15 +15 1010.5 1009.6
01 13.08 С 3
{4}
н/о н/о +15.5 +9.0 65 +15 +15 1010.5 1009.6
02 13.08 С 2
{4}
н/о н/о +15.4 +9.3 67 +15 +15 1010.6 1009.7
03 13.08
{3}
н/о н/о +15.2 +8.5 64 1010.5 1009.6
04 13.08 С 3
{3}
н/о н/о +15.3 +10.3 72 +15 +15 1010.5 1009.6
05 13.08 СВ 4
{5}
н/о н/о +15.8 +11.4 75 +15 +15 1010.4 1009.5
06 13.08 СВ 3
{5}
н/о н/о +15.7 +10.9 73 +15 +15 1010.7 1009.8 +15.1 +16.7
07 13.08 В 2
{4}
н/о н/о +16.0 +10.5 70 +16 +16 1010.9 1010.0
08 13.08 СВ 2
{3}
н/о н/о +16.5 +11.0 70 +17 +17 1011.0 1010.1
09 13.08 СВ 2
{3}
н/о н/о +16.4 +11.1 71 +17 +17 1011.1 1010.2
10 13.08 В 1
{3}
н/о н/о +17.2 +11.0 67 +18 +18 1011.2 1010.3
11 13.08 СВ 1
{2}
н/о н/о +17.7 +9.6 59 +19 +19 1010.8 1009.9
12 13.08 СЗ 3
{4}
н/о н/о +17.8 +7.0 49 +18 +18 1010.2 1009.3
13 13.08 З 2
{4}
н/о н/о +18.8 +5.3 41 +20 +20 1010.0 1009.1
14 13.08 З 3
{4}
н/о н/о +19.4 +7.2 45 +20 +20 1009.6 1008.7
15 13.08 СЗ 3
{4}
н/о н/о +19.8 +7.2 44 +21 +21 комфорт 1009.2 1008.3
16 13.08 З 2
{3}
н/о н/о +19.9 +7.6 45 +21 +21 комфорт 1008.7 1007.8
17 13.08 З 3
{3}
н/о н/о +19.7 +7.8 46 +21 +21 комфорт 1008.3 1007.4
18 13.08 З 2
{4}
н/о н/о +19.5 +8.2 48 +21 +21 комфорт 1008.2 1007.3 +15.7 +20.1
19 13.08 С 1
{3}
н/о н/о +19.2 +7.6 47 +21 +21 комфорт 1008.4 1007.5
20 13.08 В 2
{3}
н/о н/о +19.0 +7.8 48 +20 +20 1008.4 1007.5
21 13.08 В 4
{5}
н/о н/о +19.4 +6.2 42 +20 +20 1008.2 1007.3
22 13.08 В 4
{5}
н/о н/о +19.0 +8.1 49 +20 +20 1008.3 1007.4
23 13.08 В 4
{6}
н/о н/о +18.5 +8.2 51 +19 +19 1008.3 1007.4
00 14.08 В 5
{6}
н/о н/о +18.1 +8.7 54 +18 +18 1008.1 1007.2
01 14.08 В 5
{6}
н/о н/о +17.9 +9.5 58 +18 +18 1007.8 1006.9
02 14.08 В 4
{6}
н/о н/о +17.5 +9.7 60 +17 +17 1007.8 1006.9
03 14.08 СВ 3
{5}
н/о н/о +17.2 +9.6 61 +17 +17 1007.7 1006.8
04 14.08 СВ 4
{5}
н/о н/о +16.8 +9.7 63 +16 +16 1007.8 1006.9
05 14.08 СВ 5
{6}
н/о н/о +16.5 +9.2 62 +16 +16 1007.8 1006.9
06 14.08 В 5
{7}
н/о н/о +16.3 +10.2 67 +15 +15 1007.8 1006.9 +16.3 +19.6
07 14.08 СВ 5
{6}
н/о н/о +15.9 +10.7 71 +15 +15 1008.0 1007.1
08 14.08 СВ 5
{7}
н/о н/о +15.4 +10.6 73 +14 +14 1008.1 1007.2
09 14.08 СВ 6
{7}
н/о н/о +15.6 +12.0 79 +14 +14 1008.3 1007.4
10 14.08 СВ 6
{7}
н/о н/о +16.0 +12.4 79 +15 +15 1008.3 1007.4
11 14.08 СВ 6
{8}
н/о н/о +16.1 +12.3 78 +15 +15 1008.2 1007.3
12 14.08 СВ 6
{8}
н/о н/о +16.4 +12.4 77 +15 +15 1008.4 1007.5
13 14.08 СВ 6
{9}
н/о н/о +16.4 +12.0 75 +15 +15 1008.6 1007.7
14 14.08 В 8
{9}
н/о н/о +16.4 +12.0 75 +15 +15 1008.5 1007.6
15 14.08 СВ 7
{9}
н/о н/о +16.4 +12.2 76 +15 +15 1008.3 1007.4
16 14.08 СВ 8
{9}
н/о н/о +16.2 +12.0 76 +15 +15 1008.3 1007.4
17 14.08 В 9
{10}
н/о н/о +16.2 +12.6 79 +14 +14 1008.1 1007.2
18 14.08 В 7
{10}
н/о н/о +15.7 +12.5 81 +14 +14 1008.5 1007.6 +15.3 +16.6
19 14.08 В 6
{8}
н/о н/о +15.5 +12.6 83 +14 +14 1008.9 1008.0
20 14.08 В 4
{7}
н/о н/о +15.3 +12.4 83 +14 +14 1009.2 1008.3
21 14.08 СВ 2
{5}
н/о н/о +15.3 +12.3 82 +15 +15 1009.2 1008.3
22 14.08 СВ 1
{3}
н/о н/о +15.5 +12.3 81 +16 +16 1009.6 1008.7
23 14.08 СВ 2
{4}
н/о н/о +15.7 +12.3 80 +16 +16 1009.7 1008.8
00 15.08 СВ 2
{8}
н/о н/о +15.6 +12.5 82 +15 +15 1009.7 1008.8
01 15.08 В 3
{4}
н/о н/о +15.5 +12.5 82 +15 +15 1009.5 1008.6
02 15.08 В 3
{4}
н/о н/о +15.6 +12.4 81 +15 +15 1009.4 1008.5
03 15.08 В 3
{4}
н/о н/о +15.5 +12.5 82 +15 +15 1009.7 1008.8
04 15.08 ЮВ 2 н/о н/о +15.3 +12.4 83 +15 +15 1009.9 1009.0
05 15.08 Ю 2
{3}
н/о н/о +15.6 +12.5 82 +15 +15 1010.2 1009.3
06 15.08 ЮВ 4
{5}
н/о н/о +16.2 +12.8 80 +15 +15 1010.4 1009.5 +15.2 +16.2
07 15.08 ЮВ 4
{5}
н/о н/о +16.5 +12.7 78 +16 +16 1010.5 1009.6
08 15.08 ЮВ 3
{5}
н/о н/о +17.5 +13.0 75 +18 +18 1010.7 1009.8
09 15.08 ЮВ 5
{6}
н/о н/о +17.8 +13.7 77 +17 +17 1011.0 1010.1
10 15.08 Ю 5
{8}
н/о н/о +18.5 +13.8 74 +19 +19 1011.3 1010.4
11 15.08 Ю 5
{6}
н/о н/о +18.5 +13.8 74 +19 +19 1011.4 1010.5
12 15.08 ЮЗ 8
{9}
н/о н/о +18.8 +13.4 71 +19 +19 1011.7 1010.8
13 15.08 ЮЗ 8
{9}
н/о н/о +19.5 +14.1 71 +20 +20 1011.6 1010.7
14 15.08 ЮЗ 9
{11}
н/о н/о +19.6 +14.6 73 +21 +21 комфорт 1012.0 1011.1
15 15.08 ЮЗ 8
{11}
н/о н/о +19.3 +14.6 74 +20 +20 1011.7 1010.8
16 15.08 ЮЗ 8
{10}
н/о н/о +18.9 +15.2 79 +19 +19 1011.8 1010.9
17 15.08 ЮЗ 9
{10}
н/о н/о +18.6 +15.3 81 +18 +18 1011.8 1010.9
18 15.08 ЮЗ 10
{12}
н/о н/о +18.4 +15.5 83 +18 +18 1011.6 1010.7 +16.2 +19.8
19 15.08 ЮЗ 10
{12}
н/о н/о +18.3 +15.2 82 +18 +18 1011.6 1010.7
20 15.08 ЮЗ 9
{13}
н/о н/о +18.3 +15.6 84 +18 +18 1011.6 1010.7
21 15.08 ЮЗ 12
{15}
н/о н/о +18.3 +15.7 85 +17 +17 1011.8 1010.9
22 15.08 ЮЗ 11
{13}
н/о н/о +18.4 +15.8 85 +18 +18 1011.7 1010.8
23 15.08 ЮЗ 11
{14}
н/о н/о +18.3 +15.9 86 +18 +18 1011.5 1010.6
00 16.08 ЮЗ 11
{15}
н/о н/о +18.4 +16.0 86 +18 +18 1011.3 1010.4
01 16.08 ЮЗ 12
{15}
н/о н/о +18.3 +16.1 87 +17 +17 1011.0 1010.1
02 16.08 ЮЗ 12
{16}
н/о н/о +18.3 +16.1 87 +17 +17 1010.9 1010.0
03 16.08 ЮЗ 12
{14}
н/о н/о +18.3 +16.1 87 +17 +17 1010.9 1010.0
04 16.08 ЮЗ 10
{13}
н/о н/о +18.2 +16.0 87 +17 +17 1010.8 1009.9
05 16.08 ЮЗ 10
{13}
н/о н/о +18.3 +16.1 87 +18 +18 1010.6 1009.7
06 16.08 Ю 11
{16}
н/о н/о +18.3 +15.9 86 +18 +18 1010.4 1009.5 +18.1 +18.5
07 16.08 Ю 13
{15}
н/о н/о +18.4 +15.8 85 +18 +18 1010.2 1009.3
08 16.08 Ю 12
{15}
н/о н/о +18.3 +15.7 85 +17 +17 1010.0 1009.1
09 16.08 Ю 12
{15}
н/о н/о +18.6 +15.3 81 +18 +18 1010.1 1009.2
10 16.08 Ю 13
{16}
н/о н/о +18.9 +15.2 79 +19 +19 1009.7 1008.8
11 16.08 Ю 13
{17}
н/о н/о +18.9 +15.4 80 +19 +19 1009.6 1008.7
12 16.08 Ю 13
{17}
н/о н/о +19.0 +15.7 81 +19 +19 1009.7 1008.8
13 16.08 Ю 12
{17}
н/о н/о +19.3 +15.6 79 +20 +20 1009.6 1008.7
14 16.08 Ю 11
{14}
н/о н/о +19.4 +16.1 81 +20 +20 1009.2 1008.3
15 16.08 Ю 11
{14}
н/о н/о +19.5 +16.2 81 +21 +21 комфорт 1008.8 1007.9
16 16.08 Ю 10
{15}
н/о н/о +19.2 +16.2 83 +20 +20 1008.6 1007.7
17 16.08 Ю 10
{12}
н/о н/о +18.9 +16.0 83 +19 +19 1008.1 1007.2
18 16.08 Ю 11
{17}
н/о н/о +18.9 +15.8 82 +19 +19 1007.8 1006.9 +18.2 +19.5
19 16.08 ЮЗ 12
{15}
н/о н/о +18.8 +15.5 81 +19 +19 1007.5 1006.6
20 16.08 Ю 14
{18}
н/о н/о +18.5 +15.8 84 +18 +18 1007.4 1006.5
21 16.08 Ю 15
{18}
н/о н/о +18.4 +15.7 84 +17 +17 1007.2 1006.3
22 16.08 ЮЗ 13
{17}
н/о н/о +17.4 +14.9 85 +16 +16 1008.0 1007.1
23 16.08 ЮЗ 13
{16}
н/о н/о +17.4 +14.5 83 +16 +16 1008.5 1007.6
00 17.08 ЮЗ 11
{18}
н/о н/о +17.4 +14.1 81 +16 +16 1008.7 1007.8
01 17.08 ЮЗ 9
{13}
н/о н/о +17.2 +14.3 83 +16 +16 1009.0 1008.1
02 17.08 ЮЗ 10
{13}
н/о н/о +17.4 +14.5 83 +16 +16 1008.8 1007.9
03 17.08 ЮЗ 11
{14}
н/о н/о +17.2 +14.1 82 +16 +16 1008.6 1007.7
04 17.08 ЮЗ 11
{14}
н/о н/о +17.1 +13.6 80 +15 +15 1009.0 1008.1
05 17.08 ЮЗ 9
{14}
н/о н/о +16.6 +12.8 78 +15 +15 1009.6 1008.7
06 17.08 ЮЗ 10
{14}
н/о н/о +16.9 +11.0 68 +15 +15 1010.2 1009.3 +16.6 +19.1
07 17.08 ЮЗ 9
{12}
н/о н/о +16.6 +10.9 69 +15 +15 1010.5 1009.6
08 17.08 ЮЗ 9
{12}
н/о н/о +17.2 +11.7 70 +16 +16 1011.2 1010.3
09 17.08 ЮЗ 9
{11}
н/о н/о +17.5 +12.0 70 +16 +16 1011.7 1010.8
10 17.08 ЮЗ 10
{12}
н/о н/о +18.0 +12.0 68 +17 +17 1011.7 1010.8
11 17.08 ЮЗ 10
{12}
н/о н/о +18.0 +11.8 67 +17 +17 1011.8 1010.9
12 17.08 ЮЗ 11
{14}
н/о н/о +18.3 +12.7 70 +17 +17 1012.0 1011.1
13 17.08 ЮЗ 13
{15}
н/о н/о +18.6 +11.9 65 +18 +18 1011.7 1010.8
14 17.08 ЮЗ 13
{15}
н/о н/о +18.7 +12.7 68 +18 +18 1011.7 1010.8
15 17.08 ЮЗ 12
{15}
н/о н/о +18.7 +13.3 71 +18 +18 1011.7 1010.8
16 17.08 ЮЗ 13
{15}
н/о н/о +18.2 +12.2 68 +17 +17 1011.9 1011.0
17 17.08 ЮЗ 12
{15}
н/о н/о +17.9 +12.4 70 +16 +16 1011.9 1011.0
18 17.08 ЮЗ 13
{16}
н/о н/о +17.7 +12.4 71 +16 +16 1011.8 1010.9 +16.5 +18.9
19 17.08 ЮЗ 13
{16}
н/о н/о +17.6 +12.7 73 +16 +16 1012.0 1011.1
20 17.08 ЮЗ 12
{15}
н/о н/о +17.5 +12.2 71 +16 +16 1012.3 1011.4
21 17.08 ЮЗ 11
{14}
н/о н/о +17.5 +12.0 70 +16 +16 1012.5 1011.6
22 17.08 ЮЗ 11
{14}
н/о н/о +17.3 +10.9 66 +16 +16 1012.7 1011.8
23 17.08 З 12
{14}
н/о н/о +16.9 +11.2 69 +15 +15 1013.0 1012.1
00 18.08 ЮЗ 10
{16}
н/о н/о +16.8 +10.9 68 +15 +15 1013.0 1012.1
01 18.08 ЮЗ 11
{12}
н/о н/о +16.8 +11.1 69 +15 +15 1012.9 1012.0
02 18.08 ЮЗ 10
{13}
н/о н/о +16.9 +11.6 71 +15 +15 1012.8 1011.9
03 18.08 З 11
{13}
н/о н/о +16.8 +11.7 72 +15 +15 1012.6 1011.7
04 18.08 ЮЗ 11 н/о н/о +16.9 +11.6 71 +15 +15 1012.2 1011.3
05 18.08 ЮЗ 8
{18}
н/о н/о +16.5 +12.5 77 +15 +15 1012.4 1011.5

 

Местоположение метеостанции Ferder Fyr (Норвегия): широта 59.03 долгота 10.53 высота над уровнем моря 6 м.

В архиве по умолчанию представлена погода в Ferder Fyr за последнюю неделю. Архивные данные за месяц целиком и за предыдущие месяцы, начиная с января 2011 года, Вы можете получить, выбрав интересующий диапазон дат из раскрывающегося списка и нажав кнопку "Ввод!".


*Определитесь, кто Вы:
робот инопланетянин человек

Внимание! Время в таблицах - всемирное. Для получения местного времени необходимо прибавить поправку, которая в Ferder Fyr равна 1 ч.

Смотрите также архив погоды в соседних городах и на ближайших метеорологических станциях:

Погода в Stromtangen Fyr (Норвегия) (22 км)
Погода в Svenner Fyr (Норвегия) (23 км)
Погода в Melsom (Норвегия) (25 км)
Погода в Nordkoster (Швеция) (31 км)
Погода в Rygge (Норвегия) (42 км)
Погода в Sarpsborg (Норвегия) (44 км)
Погода в Gullholmen (Норвегия) (45 км)
Погода в Porsgrunn (Норвегия) (50 км)
Погода в Jomfruland (Норвегия) (58 км)
Погода в Vaderoarna (Швеция) (59 км)

Пояснения к столбцам:

Ветер - указаны скорость ветра в м/с - средняя за 10 мин, порывы в срок и между сроками (в фигурных скобках) и направление, откуда дует ветер: С - северный, СВ - северо-восточный, В - восточный, ЮВ - юго-восточный, Ю - южный, ЮЗ - юго-западный, З - западный, СЗ - северо-западный.
Видимость - горизонтальная дальность видимости в метрах или километрах. При видимости от 1 до 10 км при отсутствии осадков обычно наблюдается дымка, при ухудшении видимости до 1 км и менее - туман. В сухую погоду видимость может ухудшаться дымом, пылью или мглою.
Явления - указаны атмосферные явления, наблюдавшиеся в срок или в последний час перед сроком; фигурными скобками обозначены явления, наблюдавшиеся между сроками (за 1-3 часа до срока); квадратными скобками обозначены град или гололедные отложения с указанием их диаметра в мм.
Облачность - указаны через наклонную черту общая и нижняя облачность в баллах и высота нижней границы облаков в метрах; квадратными скобками обозначены формы облаков: Ci - перистые, Cs - перисто-слоистые, Cc - перисто-кучевые, Ac - высококучевые, As - высокослоистые, Sc - слоисто-кучевые, Ns - слоисто-дождевые, Cu - кучевые, Cb - кучево-дождевые. Подробнее классификацию облаков см. в Атласе облаков (PDF).
T - Температура воздуха - температура, измеренная на высоте 2 м над землей.
Td - Температура точки росы - температура, при понижении до которой содержащийся в воздухе водяной пар достигнет насыщения.
f - Относительная влажность воздуха - влажноcть воздуха, измеренная на высоте 2 м над землей.
Te - Эффективная температура - температура, которую ощущает одетый по сезону человек в тени. Характеристика душности погоды. При расчете учитывается влияние влажности воздуха и скорости ветра на теплоощущения человека.
Tes - Эффективная температура на солнце - температура, которую ощущает человек, с поправкой на солнечный нагрев. Характеристика знойности погоды. Зависит от высоты солнца над горизонтом, облачности и скорости ветра. Ночью, в пасмурную погоду, а также при ветре 12 м/с и более поправка равна нулю.
P - Атмосферное давление - приведенное к уровню моря атмосферное давление.
Po - Атмосферное давление - измеренное на уровне метеостанции атмосферное давление.
Tmin - Минимальная температура - минимум температуры воздуха на высоте 2 м над землей.
Tmax - Максимальная температура - максимум температуры воздуха на высоте 2 м над землей.
R - Количество осадков - Количество выпавших осадков за период времени, мм. При наведении курсора мыши на число - период времени, за который выпало указанное количество осадков.
R24 - Количество осадков - Количество выпавших осадков за 24 часа, мм.
S - Снежный покров - Высота снежного покрова, см. При наведении курсора мыши на число - состояние снежного покрова и степень покрытия местности в баллах.